Location: Hilton Head Island
(32.2163°N, 80.7526°W)
Time: 22:08:51
(UTC-04:00)

Tiros 1 despin weight - Pass Details

Date: 20 February 2026
Orbit: 556 x 593 km, 48.2° (Epoch: 13 March)

Event Time Altitude Azimuth Distance (km) Brightness Sun altitude
Rises 13:34:48 0° 234° (SW) 2,751 ? 44.9°
Reaches altitude 10° 13:37:05 10° 236° (SW) 1,851 ? 44.7°
Maximum altitude 13:41:18 73° 321° (NW) 589 ? 44.4°
Drops below altitude 10° 13:45:29 10° 47° (NE) 1,840 ? 44.0°
Sets 13:47:45 0° 49° (NE) 2,734 ? 43.8°
